Regional Weather Roundup
Issued by NWS Sioux Falls, SD

Home | Current Version | Previous Version | Text Only | Print | Product List | Glossary On
Versions: 1 2 3 4 5 6 7 8 9 10 11 12 13 14 15 16 17 18 19 20 21 22 23 24 25 26 27 28 29 30 31 32 33 34 35 36 37 38 39 40 41 42 43 44 45 46 47 48 49 50
000
ASUS43 KFSD 211210
RWRFSD

WEATHER ROUNDUP FOR SE SOUTH DAKOTA/SW MINNESOTA/NW IOWA
NATIONAL WEATHER SERVICE SIOUX FALLS SD
600 AM CST WED FEB 21 2018

NOTE: "FAIR" INDICATES FEW OR NO CLOUDS BELOW 12,000 FEET WITH NO
SIGNIFICANT WEATHER AND OR OBSTRUCTIONS TO VISIBILITY.


SDZ038>040-050-052>070-211300-
SOUTHEAST SOUTH DAKOTA

CITY           SKY/WX    TMP DP  RH WIND       PRES   REMARKS
BROOKINGS      CLOUDY    -6 -12  75 W5        30.47  WCI -17
CHAMBERLAIN    CLEAR     -4 -10  77 CALM      30.47S
6HR MIN TEMP: -10; 6HR MAX TEMP:  -2;

HURON          CLEAR     -7 -12  79 CALM      30.50R
6HR MIN TEMP:  -7; 6HR MAX TEMP:  -2;

MADISON        FAIR      -8  -8 100 NW3       30.46S
MITCHELL       CLEAR     -3 -10  72 W8        30.52S WCI -18
6HR MIN TEMP:  -3; 6HR MAX TEMP:   1;

SIOUX FALLS    CLOUDY    -5 -10  79 CALM      30.51R
6HR MIN TEMP:  -5; 6HR MAX TEMP:   1;

WINNER         FAIR      -2 -11  65 SW7       30.43S WCI -15
YANKTON        PTCLDY    -2  -6  83 SE5       30.55R WCI -12
$$

MNZ071-072-080-081-089-090-097-098-211300-
SOUTHWEST MINNESOTA

CITY           SKY/WX    TMP DP  RH WIND       PRES   REMARKS
FAIRMONT       CLEAR      1  -4  79 W5        30.54R WCI  -9
JACKSON        CLOUDY     1  -6  71 W6        30.50S WCI -10
LUVERNE        CLOUDY    -8 -13  77 CALM      30.51S
MARSHALL       PTCLDY    -7 -12  79 CALM      30.52R
6HR MIN TEMP:  -7; 6HR MAX TEMP:   1;

MONTEVIDEO     CLOUDY    -2  -9  71 W3        30.51R
PIPESTONE      CLOUDY    -6 -11  77 W5        30.47R WCI -17
REDWOOD FALLS  CLOUDY    -1  -7  75 W7        30.52R WCI -14
TRACY          PTCLDY    -3  -8  78 SW7       30.49S WCI -16
WORTHINGTON    CLOUDY    -3  -7  82 CALM      30.49S
$$

IAZ001>003-012>014-020>022-031-032-NEZ013-014-SDZ071-211300-
NORTHWEST IOWA

CITY           SKY/WX    TMP DP  RH WIND       PRES   REMARKS
CHEROKEE       PTCLDY     3  -1  82 CALM      30.55S
DENISON        CLEAR      7   1  78 N5        30.56S WCI  -2
ESTHERVILLE    CLEAR      1  -4  79 W8        30.51R WCI -13
LE MARS        CLOUDY     1  -4  78 CALM      30.56R
ORANGE CITY    CLOUDY    -2  -6  84 CALM      30.52R
SHELDON        CLOUDY    -2  -6  84 CALM      30.50S
SIOUX CITY     CLEAR      1  -3  83 W6        30.57R WCI -10
6HR MIN TEMP:   0; 6HR MAX TEMP:   7;

SPENCER        MIX PCPN   1  -4  79 NW7       30.52S WCI -12
6HR MIN TEMP:   1; 6HR MAX TEMP:   6; 6HR PCP: TRACE;

STORM LAKE     CLEAR      3   0  85 NW8       30.53R WCI -10
$$

ABBREVIATIONS USED IN REMARKS
   TC - TEMPERATURE IN CELSIUS
  WCI - WIND CHILL INDEX
   HX - HEAT INDEX
  VSB - VISIBILITY




USA.gov is the U.S. government's official web portal to all federal, state and local government web resources and services.